#timestamp,LO_Frequency,Hit 
1502874015.6,286047001.0,N
1502874035.4,286046998.2,N
1502874055.3,286047000.6,N
1502874075.1,286047001.2,N
1502874076.0,286047001.2,N
1502874095.8,286047000.4,N
1502874115.7,286047001.2,N
1502874135.5,286046998.3,N
1502874155.3,286046999.0,N
1502874175.2,286046996.8,P
1502874195.0,286046996.6,N
1502874195.9,286046996.6,N
1502874215.7,286046999.0,N
1502874235.6,286046996.6,N
1502874255.4,286046997.0,P
1502874275.3,286047000.0,N
1502874295.1,286047001.2,N
1502874296.0,286047001.2,N
1502874315.8,286046998.5,N
1502874335.7,286047000.9,N
1502874355.5,286047001.2,N
1502874375.3,286047001.0,N
1502874395.2,286046998.1,N
1502874415.0,286047000.3,N
1502874415.9,286047000.3,N
1502874435.7,286047000.5,N
1502874455.6,286047002.3,N
1502874475.4,286047000.0,N
1502874495.2,286046999.8,N
1502874515.1,286047002.5,N
1502874516.0,286047002.5,N
1502874535.8,286047002.5,N
1502874555.7,286047001.6,N
1502874575.5,286047002.0,N
1502874595.3,286047002.5,N
1502874615.2,286047002.5,N
1502874635.9,286046999.7,N
1502874655.7,286047002.0,N
1502874675.6,286047002.4,N
1502874695.4,286047001.6,N
1502874715.2,286047001.5,N
1502874735.1,286047004.0,N
1502874736.0,286047004.0,N
1502874755.8,286047003.8,N
1502874775.7,286047004.0,N
1502874795.5,286047003.5,N
1502874815.3,286047003.7,N
1502874835.2,286047004.2,N
1502874855.9,286047005.6,P
1502874875.7,286047002.6,N
1502874895.6,286047002.8,N
1502874915.4,286047002.5,N
1502874935.2,286047000.5,N
1502874955.1,286047002.4,N
1502874956.0,286047002.4,N
1502874975.8,286046999.7,N
1502874995.7,286047002.7,N
1502875015.5,286047002.1,N
1502875035.3,286046999.9,N
1502875055.2,286047002.8,N
1502875075.9,286047002.2,N
1502875095.7,286047001.9,N
1502875115.6,286047002.7,N
1502875135.4,286047002.6,N
1502875155.2,286047002.7,N
1502875175.1,286047002.6,N
1502875176.0,286047002.6,N
1502875195.8,286046999.9,N
1502875215.7,286046999.7,N
1502875235.5,286047002.6,N
1502875255.3,286047002.6,N
1502875275.2,286047000.0,N
1502875295.9,286047000.6,N
1502875315.7,286047001.1,N
1502875335.6,286047000.0,N
1502875355.4,286047002.5,N
1502875375.2,286047000.0,N
1502875395.1,286047000.5,N
1502875396.0,286047000.5,N
1502875415.8,286046999.9,N
1502875435.7,286047000.3,N
1502875455.5,286047000.0,N
1502875475.3,286047000.6,N
1502875495.2,286047000.9,N
1502875515.0,286047000.1,N
1502875515.9,286047000.1,N
1502875535.7,286047002.8,N
1502875555.6,286047000.6,N
1502875575.4,286047000.4,N
1502875595.3,286047000.6,N
1502875615.1,286047000.6,N
1502875616.0,286047000.6,N
1502875635.8,286046998.2,N
1502875655.7,286046998.3,N
1502875675.5,286046998.6,N
1502875695.3,286047000.4,N
1502875715.2,286046998.5,N
1502875735.0,286047000.8,N
1502875735.9,286047000.8,N
1502875755.7,286046998.6,N
1502875775.6,286047000.1,N
1502875795.4,286047000.7,N
1502875815.3,286047001.0,N
1502875835.1,286046998.7,N
1502875836.0,286046998.7,N
1502875855.8,286046998.7,N
1502875875.7,286046998.9,N
1502875895.5,286046999.1,N
1502875915.3,286046999.4,N
1502875935.2,286046996.9,N
1502875955.0,286046998.8,N
1502875955.9,286046998.8,N
1502875975.8,286046999.5,N
1502875995.6,286046996.7,N
1502876015.4,286046996.6,N
1502876035.3,286046998.9,N
1502876055.1,286046999.1,N
1502876056.0,286046999.1,N
1502876075.8,286046999.5,N
1502876095.7,286046999.6,N
1502876115.5,286047001.0,N
1502876135.3,286046998.6,N
1502876155.2,286046999.5,N
1502876175.0,286046999.2,N
1502876175.9,286046999.2,N
1502876195.7,286046998.5,N
1502876215.6,286046998.2,N
1502876235.4,286046998.9,N
1502876255.3,286046999.6,N
1502876275.1,286046996.9,P
1502876276.0,286046996.9,N
1502876295.8,286046998.9,N
1502876315.7,286046998.1,N
1502876335.5,286046998.5,N
1502876355.3,286046998.3,N
1502876375.2,286046998.8,N
1502876395.0,286046998.1,N
1502876395.9,286046998.1,N
1502876415.8,286047000.9,N
1502876435.6,286047000.6,N
1502876455.4,286047001.2,N
1502876475.3,286046998.2,N
1502876495.1,286047000.7,N
1502876496.0,286047000.7,N
1502876515.8,286047000.8,N
1502876535.7,286047001.2,N
1502876555.5,286047000.6,N
1502876575.3,286046998.4,N
1502876595.2,286047000.8,N
1502876615.0,286046998.4,N
1502876615.9,286046998.4,N
1502876635.7,286046998.7,N
1502876655.6,286046998.5,N
1502876675.4,286046999.0,N
1502876695.3,286046998.6,N
1502876715.1,286046999.9,N
1502876716.0,286046999.9,N
1502876735.8,286046999.9,N
1502876755.7,286047000.0,N
1502876775.5,286047000.6,N
1502876795.3,286047000.1,N
1502876815.2,286046999.9,N
1502876835.0,286047000.2,N
1502876835.9,286047000.2,N
1502876855.7,286047002.2,N
1502876875.6,286047000.5,N
1502876895.4,286047002.3,N
1502876915.2,286047000.0,N
1502876935.1,286047002.8,N
1502876936.0,286047002.8,N
1502876955.8,286047000.1,N
1502876975.7,286047002.8,N
1502876995.5,286047002.2,N
1502877015.3,286047000.2,N
1502877035.2,286047000.5,N
1502877055.9,286047000.4,N
1502877075.7,286047001.1,N
1502877095.6,286047000.0,N
1502877115.4,286047000.3,N
1502877135.2,286047000.0,N
1502877155.1,286047000.5,N
1502877156.0,286047000.5,N
1502877175.8,286047001.1,N
1502877195.7,286047000.5,N
1502877215.5,286047000.7,N
1502877235.3,286047001.2,N
1502877255.2,286046998.4,N
1502877275.9,286047001.0,N
1502877295.7,286047000.3,N
1502877315.6,286047001.0,N
1502877335.4,286046998.4,N
1502877355.2,286046998.9,N
1502877375.1,286046998.6,N
1502877376.0,286046998.6,N
1502877395.8,286047000.8,N
1502877415.6,286047000.2,N
1502877435.5,286047001.1,N
1502877455.3,286047000.0,N
1502877475.2,286047001.2,N
1502877495.9,286047000.6,N
1502877515.7,286047002.4,N
1502877535.6,286047000.0,N
1502877555.4,286047000.1,N
1502877575.2,286047000.9,N
1502877595.1,286047000.9,N
1502877596.0,286047000.9,N
